Lexington Weather

Lexington, Massachusetts, USA

29°F
1/23/2020 9:31am 
  • Lexington Conditions: Partly cloudy
  • Temperature: 28.8°F / -1.8°CWarmer 4.5°F than last hour.
  • Dew Point: 19.9°FIncreased 1.6°Fsince last hour.
  • Relative Humidity: 69%Decreased 9.0% since last hour.
  • Wind: Calm, 10-min avg: Calm, gust: 3 mph
  • Barometer: 30.34 in Steady
  • Visibility: 10 miles
  • Snow Today: 0.0 in
  •   

Regional Weather Roundup
for Boston / Norton, MA

        
000
ASUS41 KBOX 201810
RWRBOX

REGIONAL WEATHER ROUNDUP
NATIONAL WEATHER SERVICE BOSTON/NORTON MA
100 PM EST MON JAN 20 2020

NOTE:  "FAIR" INDICATES FEW OR NO CLOUDS BELOW 12,000 FEET WITH NO 
SIGNIFICANT WEATHER AND/OR OBSTRUCTIONS TO VISIBILITY.

MAZALL-201900-
EASTERN MASSACHUSETTS
  
CITY           SKY/WX    TMP DP  RH WIND       PRES   REMARKS
BOSTON         FAIR      29   5  36 NW16G23   30.18S WCI  17          
6HR MIN TEMP:  19; 6HR MAX TEMP:  29;                                

BEVERLY        FAIR      24   3  40 NW14      30.16S WCI  12          
LAWRENCE       FAIR      23   0  36 NW7       30.19S WCI  15          
BEDFORD        FAIR      26  -3  28 NW17G24   30.18R WCI  13          
BLUE HILL      NOT AVBL                                               
NORWOOD        FAIR      30   4  33 NW12      30.18S WCI  20          
MARSHFIELD     FAIR      28   9  43 NW8G16    30.16S WCI  20          
PLYMOUTH       FAIR      27   8  44 NW10G20   30.15S WCI  17          
TAUNTON        FAIR      27   6  41 NW9       30.16F WCI  18          
NEW BEDFORD    FAIR      27   7  42 W8G21     30.16S WCI  19          
$$

MAZALL-201900-
CAPE COD AND THE ISLANDS
  
CITY           SKY/WX    TMP DP  RH WIND       PRES   REMARKS
FALMOUTH       SUNNY     27   7  43 N12G20    30.14S WCI  16          
HYANNIS        CLOUDY    26  14  60 N10G22    30.13R WCI  16          
CHATHAM        LGT SNOW  25  18  74 VRB7G18   30.13R WCI  17          
PROVINCETOWN   CLOUDY    25  18  74 N14       30.16R WCI  13          
NANTUCKET      PTSUNNY   27  16  63 NW21G28   30.13R WCI  13          
MARTHAS VNYRD  FAIR      28  10  46 NW13      30.15R WCI  17          
$$
 
MAZALL-201900-
CENTRAL AND WESTERN MASSACHUSETTS
  
CITY           SKY/WX    TMP DP  RH WIND       PRES   REMARKS
WORCESTER      FAIR      22  -2  35 NW17G28   30.13S WCI   8          
6HR MIN TEMP:  11; 6HR MAX TEMP:  22;                                

FITCHBURG      FAIR      26  -1  31 NW13      30.19S WCI  15          
ORANGE         FAIR      24   0  35 NW9       30.20S WCI  14          
SPRINGFIELD    SUNNY     25   0  34 NW8       30.21S WCI  16          
WESTFIELD      FAIR      25   0  33 N18       30.22F WCI  11          
NORTH ADAMS    FAIR      17   0  47 NW8       30.28R WCI   7          
PITTSFIELD     FAIR      16   2  54 NW13      30.19F WCI   2          
$$
 
RIZALL-201900-
RHODE ISLAND
  
CITY           SKY/WX    TMP DP  RH WIND       PRES   REMARKS
PROVIDENCE     FAIR      28   7  41 NW13G18   30.19S WCI  17          
6HR MIN TEMP:  17; 6HR MAX TEMP:  28;                                

NEWPORT        FAIR      27   7  42 N15       30.16  WCI  15          
BLOCK ISLAND   FAIR      26  10  50 N13G20    30.19S WCI  15          
SMITHFIELD     FAIR      24   5  44 NW14G20   30.16S WCI  12          
WESTERLY       FAIR      30   4  33 NW13G21   30.20R WCI  20          
$$
 
CTZALL-201900-
CONNECTICUT
  
CITY           SKY/WX    TMP DP  RH WIND       PRES   REMARKS
BRADLEY INTL   FAIR      26   2  35 NW13G20   30.23S WCI  15          
6HR MIN TEMP:  14; 6HR MAX TEMP:  26;                                

HARTFORD       FAIR      26   1  34 N13G22    30.24F WCI  15          
BRIDGEPORT     FAIR      28   3  34 N17G25    30.25S WCI  16          
DANBURY        FAIR      24  -1  33 NW15G23   30.25S WCI  11          
GROTON         FAIR      28   1  31 N17G25    30.20R WCI  16          
NEW HAVEN      FAIR      29   2  31 N14G24    30.23S WCI  18          
CHESTER        NOT AVBL                                               
MERIDEN        FAIR      26   2  35 NW16G22   30.24S WCI  14          
WILLIMANTIC    FAIR      25   2  37 N15G21    30.22S WCI  13          
OXFORD         FAIR      24   5  44 NW10G21   30.20F WCI  14          
$$

MEZ002-015-021-024-NHZ003-005-008-011-012-014-VTZ005-008-201900-
NORTHERN NEW ENGLAND
  
CITY           SKY/WX    TMP DP  RH WIND       PRES   REMARKS
PORTLAND ME    FAIR      25  -2  31 N14       30.15F WCI  13          
6HR MIN TEMP:  18; 6HR MAX TEMP:  25;                                

BANGOR ME      FAIR      19   5  54 NW13      30.09F WCI   6          
CONCORD NH     FAIR      20  -2  38 NW20      30.18F WCI   4          
MANCHESTER NH  FAIR      24  -3  30 NW13      30.17S WCI  12          
NASHUA NH      FAIR      25   1  35 NW13G23   30.19S WCI  14          
PORTSMOUTH NH  MOSUNNY   24  -2  32 W8        30.14F WCI  14          
JAFFREY NH     FAIR      22  -3  33 N10G18    30.14F WCI  11          
KEENE NH       FAIR      22   2  42 N13       30.22S WCI  10          
BURLINGTON VT  FAIR      15  -1  49 NE3       30.31F                  
MT. WASHINGTON MOSUNNY    0 -11  60 NW58        N/A  WCI -33          
$$

NYZ052-076-201900-
EASTERN NEW YORK
  
CITY           SKY/WX    TMP DP  RH WIND       PRES   REMARKS
ALBANY         FAIR      21   0  39 NW10      30.34F WCI  10          
6HR MIN TEMP:  13; 6HR MAX TEMP:  21;                                

NEW YORK CITY  FAIR      29   2  31 N14       30.28S WCI  18          
6HR MIN TEMP:  21; 6HR MAX TEMP:  29;                                

$$
 
ANZALL-201900-
MARINE OBSERVATIONS
  
STATION/POSITION TIME  TEMP    WIND        PRES    VSBY  WAVE
                       AIR SEA DIR/SP/G                  HT/PER
                 (UTC) (F)     (DEG/KT/KT) (MB)    (MI)  (FT/S)
BOSTON BUOY      1750   25 43  320/ 16/ 19 1020.9S         4/ 6
BUZZARDS BAY     1700   23     330/ 14/ 18 1022.0R
NANTUCKET SOUND  1740                        N/A           2/ 3
MASS BAY-STELLWA 1704   23 42  350/ 14/ 17 1019.5S  1 7/8  4/ 6
ISLE OF SHOALS   1800   23     310/ 14/ 16 1020.8F
S OF BLOCK IS    1800      45                N/A           5/11
$$

......................KEY.........................
  SKY/WX - SKY CONDITION/PRESENT WEATHER
  TMP    - TEMPERATURE IN FAHRENHEIT
  DWPT   - DEWPOINT IN FAHRENHEIT
  RH     - RELATIVE HUMIDITY IN PERCENT
  WIND   - DIRECTION AND SPEED IN MPH
  PRES   - MEAN SEA LEVEL PRESSURE IN INCHES OF HG
  WCI    - WIND CHILL INDEX
  VSB    - VISIBILITY IN MILES
  HX     - HEAT INDEX
  TC     - TEMPERATURE IN CELSIUS
  VRB    - VARIABLE WIND DIRECTION
  N/A    - NOT AVAILABLE
  
      

Other recent Regional Weather Roundups

Thu Jan 23, 9:10am

Thu Jan 23, 9:00am

Thu Jan 23, 8:10am

Thu Jan 23, 8:00am

Thu Jan 23, 7:10am

Thu Jan 23, 7:01am

Thu Jan 23, 6:10am

Thu Jan 23, 6:00am

Thu Jan 23, 5:10am

Thu Jan 23, 5:00am

Thu Jan 23, 4:10am

Thu Jan 23, 4:01am

Thu Jan 23, 3:10am

Thu Jan 23, 3:00am

Thu Jan 23, 2:10am

Thu Jan 23, 2:00am

Thu Jan 23, 1:10am

Thu Jan 23, 1:00am

Thu Jan 23, 12:10am

Thu Jan 23, 12:00am

Wed Jan 22, 11:10pm

Wed Jan 22, 11:01pm

Wed Jan 22, 10:10pm

Wed Jan 22, 10:00pm

Wed Jan 22, 9:10pm

Wed Jan 22, 9:00pm

Wed Jan 22, 8:10pm

Wed Jan 22, 8:01pm

Wed Jan 22, 7:10pm

Wed Jan 22, 7:00pm

Wed Jan 22, 6:10pm

Wed Jan 22, 6:01pm

Wed Jan 22, 5:10pm

Wed Jan 22, 5:00pm

Wed Jan 22, 4:10pm

Wed Jan 22, 4:00pm

Wed Jan 22, 3:10pm

Wed Jan 22, 3:00pm

Wed Jan 22, 2:10pm

Wed Jan 22, 2:00pm

Wed Jan 22, 1:10pm

Wed Jan 22, 1:00pm

Wed Jan 22, 12:10pm

Wed Jan 22, 12:00pm

Wed Jan 22, 11:10am

Wed Jan 22, 11:00am

Wed Jan 22, 10:10am

Wed Jan 22, 10:01am

Wed Jan 22, 9:10am

Wed Jan 22, 9:00am

Wed Jan 22, 8:10am

Wed Jan 22, 8:00am

Wed Jan 22, 7:10am

Wed Jan 22, 7:00am

Wed Jan 22, 6:10am

Wed Jan 22, 6:00am

Wed Jan 22, 5:10am

Wed Jan 22, 5:00am

Wed Jan 22, 4:10am

Wed Jan 22, 4:00am

Wed Jan 22, 3:10am

Wed Jan 22, 3:01am

Wed Jan 22, 2:10am

Wed Jan 22, 2:00am

Wed Jan 22, 1:10am

Wed Jan 22, 1:00am

Wed Jan 22, 12:10am

Wed Jan 22, 12:00am

Tue Jan 21, 11:10pm

Tue Jan 21, 11:00pm

Tue Jan 21, 10:10pm

Tue Jan 21, 10:00pm

Tue Jan 21, 9:10pm

Tue Jan 21, 9:01pm

Tue Jan 21, 8:10pm

Tue Jan 21, 8:00pm

Tue Jan 21, 7:10pm

Tue Jan 21, 7:00pm

Tue Jan 21, 6:10pm

Tue Jan 21, 6:01pm

Tue Jan 21, 5:10pm

Tue Jan 21, 5:00pm

Tue Jan 21, 4:10pm

Tue Jan 21, 4:00pm

Tue Jan 21, 3:10pm

Tue Jan 21, 3:01pm

Tue Jan 21, 2:10pm

Tue Jan 21, 2:00pm

Tue Jan 21, 1:10pm

Tue Jan 21, 1:00pm

Tue Jan 21, 12:10pm

Tue Jan 21, 12:00pm

Tue Jan 21, 11:10am

Tue Jan 21, 11:00am

Tue Jan 21, 10:10am

Tue Jan 21, 10:00am

Tue Jan 21, 9:10am

Tue Jan 21, 9:00am

Tue Jan 21, 8:10am

Tue Jan 21, 8:00am

Tue Jan 21, 7:10am

Tue Jan 21, 7:00am

Tue Jan 21, 6:10am

Tue Jan 21, 6:00am

Tue Jan 21, 5:10am

Tue Jan 21, 5:00am

Tue Jan 21, 4:10am

Tue Jan 21, 4:00am

Tue Jan 21, 3:10am

Tue Jan 21, 3:00am

Tue Jan 21, 2:10am

Tue Jan 21, 2:01am

Tue Jan 21, 1:10am

Tue Jan 21, 1:00am

Tue Jan 21, 12:10am

Tue Jan 21, 12:00am

Mon Jan 20, 11:10pm

Mon Jan 20, 11:00pm

Mon Jan 20, 10:10pm

Mon Jan 20, 10:00pm

Mon Jan 20, 9:10pm

Mon Jan 20, 9:00pm

Mon Jan 20, 8:10pm

Mon Jan 20, 8:00pm

Mon Jan 20, 7:10pm

Mon Jan 20, 7:00pm

Mon Jan 20, 6:10pm

Mon Jan 20, 6:00pm

Mon Jan 20, 5:10pm

Mon Jan 20, 5:00pm

Mon Jan 20, 4:10pm

Mon Jan 20, 4:01pm

Mon Jan 20, 3:10pm

Mon Jan 20, 3:00pm

Mon Jan 20, 2:10pm

Mon Jan 20, 2:00pm

Mon Jan 20, 1:00pm

Mon Jan 20, 12:10pm

Mon Jan 20, 12:00pm

Mon Jan 20, 11:10am

Mon Jan 20, 11:00am

Mon Jan 20, 10:10am

Mon Jan 20, 10:00am

Meta data:

ID: b4d06b18-bc60-415e-b4ac-f960bac19cd2
Link: https://api.weather.gov/products/b4d06b18-bc60-415e-b4ac-f960bac19cd2